Weather History for Worland, WY

Change the Weather History Date:

Monday, May 20, 2013

  Actual Average Record
Temperature  
Mean Temperature 56 °F 57 °F  
Max Temperature 64 °F 71 °F 94 °F (1964)
Min Temperature 48 °F 42 °F 30 °F (2003)
Degree Days  
Heating Degree Days 9 9  
Month to date heating degree days 174 231  
Since 1 July heating degree days 7353 7698  
Cooling Degree Days 0 0  
Month to date cooling degree days 16 0  
Year to date cooling degree days 16 1  
Growing Degree Days 6 (Base 50)    
Moisture  
Dew Point 39 °F    
Average Humidity 57    
Maximum Humidity 86    
Minimum Humidity 28    
Precipitation  
Precipitation 0.00 in 0.05 in 0.70 in (1961)
Month to date precipitation 0.78 0.90  
Year to date precipitation 2.35 2.64  
Sea Level Pressure  
Sea Level Pressure 30.00 in    
Wind  
Wind Speed 21 mph (NNW)    
Max Wind Speed 30 mph    
Max Gust Speed 41 mph    
Visibility 10 miles    
Events      
T = Trace of Precipitation, MM = Missing Value Source: NWS Daily Summary

Daily Weather History Graph

Daily Weather History Graph

Search for Another Location

Airport:

Trip Planner

Search our weather history database for the weather conditions in past years. The results will help you decide how hot, cold, wet, or windy it might be!

Date:

Astronomy

May. 20, 2013 Rise Set
Actual Time 5:40 AM MDT 8:36 PM MDT
Civil Twilight 5:06 AM MDT 9:10 PM MDT
Nautical Twilight 4:23 AM MDT 9:54 PM MDT
Astronomical Twilight 3:32 AM MDT 10:45 PM MDT
Moon 3:38 PM MDT (5/20) 2:47 AM MDT (5/20)
Length of Visible Light 16h 04m
Length of Day
14h 56m
Waxing Gibbous, 75% of the Moon is Illuminated
May 20
Waxing Gibbous
May 24
Full
May 31
Last Quarter
Jun 8
New
Jun 16
First Quarter

Hourly Weather History & Observations

Time (MDT) Temp. Dew Point Humidity Pressure Visibility Wind Dir Wind Speed Gust Speed Precip Events Conditions
12:44 AM 48.2 °F 44.6 °F 87% 29.98 in 10.0 mi NNW 10.4 mph - N/A   Overcast
12:53 AM 48.9 °F 44.1 °F 83% 29.94 in 10.0 mi NNW 11.5 mph - N/A   Overcast
2:53 AM 48.9 °F 44.1 °F 83% 29.93 in 10.0 mi NNW 18.4 mph 26.5 mph N/A   Overcast
3:53 AM 48.9 °F 44.1 °F 83% 29.94 in 10.0 mi NW 17.3 mph - N/A   Overcast
4:53 AM 48.9 °F 44.1 °F 83% 29.96 in 10.0 mi NNW 18.4 mph - N/A   Overcast
6:53 AM 48.9 °F 44.1 °F 83% 29.99 in 10.0 mi NW 21.9 mph 29.9 mph N/A   Overcast
8:53 AM 53.1 °F 44.1 °F 71% 30.01 in 10.0 mi NNW 24.2 mph 33.4 mph N/A   Scattered Clouds
9:53 AM 55.9 °F 43.0 °F 62% 30.01 in 10.0 mi NNW 25.3 mph 34.5 mph N/A   Mostly Cloudy
10:53 AM 55.9 °F 43.0 °F 62% 30.02 in 10.0 mi NNW 26.5 mph 33.4 mph N/A   Overcast
11:53 AM 59.0 °F 42.1 °F 53% 30.01 in 10.0 mi NNW 29.9 mph 36.8 mph N/A   Scattered Clouds
12:53 PM 61.0 °F 39.9 °F 46% 30.01 in 10.0 mi NNW 24.2 mph 33.4 mph N/A   Scattered Clouds
1:53 PM 60.1 °F 39.9 °F 47% 30.01 in 10.0 mi NW 26.5 mph 38.0 mph N/A   Partly Cloudy
2:53 PM 62.1 °F 37.9 °F 41% 30.00 in 10.0 mi NW 17.3 mph 27.6 mph N/A   Mostly Cloudy
3:53 PM 63.0 °F 34.0 °F 34% 29.99 in 10.0 mi North 21.9 mph 38.0 mph N/A   Scattered Clouds
4:53 PM 61.0 °F 42.1 °F 50% 30.00 in 10.0 mi NW 21.9 mph 29.9 mph N/A   Partly Cloudy
5:53 PM 61.0 °F 39.0 °F 44% 30.00 in 10.0 mi NNW 19.6 mph 29.9 mph N/A   Partly Cloudy
6:53 PM 61.0 °F 36.0 °F 39% 29.99 in 10.0 mi NNW 19.6 mph 29.9 mph N/A   Clear
8:53 PM 55.9 °F 28.9 °F 36% 30.03 in 10.0 mi North 20.7 mph 26.5 mph N/A   Partly Cloudy
9:53 PM 52.0 °F 28.0 °F 40% 30.06 in 10.0 mi NW 9.2 mph - N/A   Clear
10:53 PM 50.0 °F 30.9 °F 48% 30.07 in 10.0 mi NW 15.0 mph - N/A   Clear
11:53 PM 48.9 °F 32.0 °F 52% 30.06 in 10.0 mi NW 15.0 mph - N/A   Partly Cloudy